THY83J LTFM-KDFW

Flight info

Callsign THY83J
Flight time N/A
Altitude 30000
Route TUDBU Q26 ETUBA T226 NAVOD DCT MOPUG DCT BEGLA/N0491F320 DCT DITIS DCT SOPGA DCT VARIK L602 PEROX Z715 UNAVI Z93 KODUK/N0459F240 Z93 ETOLU/N0473F260 Z719 BIBTA/N0459F240 N850 GISEM Z505 ARPEG/N0492F320 Z850 HMM L602 MIMVA DCT OTBED Y70 GOLES/N0461F240 L975 DESIG L70 PENIL/N0492F320 M144 BAGSO DCT DOGAL/M084F340 NATA ALLRY/N0485F340 N476B TOPPS/N0491F360 DCT BGR J49 BUFFY DCT IZZEE DCT HACKS DCT HNN DCT ENGRA DCT BNA DCT TROVE/N0482F380 DCT EDWAH DCT FEWWW BRDJE5
Aircraft B77W/H-SDE1E2E3FGHIJ2J3J4J5M1RWXY/LB1D1

Departure

Time 2026-05-01 08:27
Airport İstanbul Airport (LTFM)

Arrival

Time N/A
Airport Dallas Fort Worth International Airport (KDFW)
Time Latitude Longitude Altitude Speed Heading
2026-05-01 07:47 41.26742 28.74125 339 ft 0 kts 89°
2026-05-01 08:14 41.26742 28.74113 339 ft 4 kts 85°
2026-05-01 08:14 41.26737 28.74079 336 ft 4 kts 67°
2026-05-01 08:15 41.26723 28.74048 333 ft 4 kts 45°
2026-05-01 08:15 41.26680 28.74021 333 ft 1 kts 359°
2026-05-01 08:15 41.26679 28.74021 333 ft 0 kts 359°
2026-05-01 08:19 41.26710 28.74020 333 ft 8 kts 359°
2026-05-01 08:19 41.26791 28.74019 335 ft 13 kts 359°
2026-05-01 08:19 41.26876 28.74017 335 ft 12 kts 359°
2026-05-01 08:19 41.26951 28.73999 335 ft 11 kts 315°
2026-05-01 08:20 41.26964 28.73902 339 ft 11 kts 270°
2026-05-01 08:20 41.26963 28.73775 339 ft 18 kts 269°
2026-05-01 08:20 41.26960 28.73574 339 ft 23 kts 269°
2026-05-01 08:20 41.26956 28.73362 335 ft 19 kts 269°
2026-05-01 08:21 41.26954 28.73211 339 ft 12 kts 269°
2026-05-01 08:21 41.26953 28.73104 339 ft 11 kts 269°
2026-05-01 08:21 41.26938 28.73006 333 ft 11 kts 224°
2026-05-01 08:21 41.26862 28.72988 338 ft 11 kts 181°
2026-05-01 08:22 41.26783 28.72990 336 ft 11 kts 179°
2026-05-01 08:22 41.26720 28.72992 334 ft 7 kts 179°
2026-05-01 08:22 41.26670 28.72994 337 ft 7 kts 178°
2026-05-01 08:22 41.26620 28.72995 338 ft 7 kts 179°
2026-05-01 08:23 41.26599 28.72996 335 ft 0 kts 179°
2026-05-01 08:23 41.26580 28.72996 338 ft 7 kts 179°
2026-05-01 08:24 41.26526 28.72998 334 ft 8 kts 179°
2026-05-01 08:24 41.26472 28.72999 335 ft 8 kts 179°
2026-05-01 08:24 41.26418 28.73000 335 ft 8 kts 179°
2026-05-01 08:24 41.26359 28.73001 333 ft 9 kts 179°
2026-05-01 08:25 41.26285 28.73003 337 ft 12 kts 179°
2026-05-01 08:25 41.26217 28.72951 336 ft 14 kts 256°
2026-05-01 08:25 41.26214 28.72809 339 ft 17 kts 269°
2026-05-01 08:25 41.26211 28.72641 339 ft 17 kts 269°
2026-05-01 08:26 41.26232 28.72532 334 ft 12 kts 335°
2026-05-01 08:26 41.26289 28.72525 334 ft 5 kts 358°
2026-05-01 08:26 41.26406 28.72522 334 ft 34 kts 359°
2026-05-01 08:26 41.26864 28.72512 334 ft 97 kts 359°
2026-05-01 08:27 41.27727 28.72492 334 ft 149 kts 359°
2026-05-01 08:27 41.28891 28.72456 429 ft 175 kts 359°
2026-05-01 08:27 41.30081 28.72382 827 ft 177 kts 357°
2026-05-01 08:27 41.31321 28.72305 1341 ft 177 kts
2026-05-01 08:28 41.32551 28.72291 1948 ft 175 kts
2026-05-01 08:28 41.33767 28.72305 2400 ft 180 kts
2026-05-01 08:28 41.35072 28.72381 2566 ft 194 kts
2026-05-01 08:28 41.36462 28.72437 2842 ft 208 kts
2026-05-01 08:29 41.37948 28.72441 3106 ft 219 kts 357°
2026-05-01 08:29 41.39469 28.71866 3365 ft 236 kts 341°
2026-05-01 08:29 41.40986 28.70915 3847 ft 245 kts 339°
2026-05-01 08:29 41.42525 28.69898 4399 ft 248 kts 339°
2026-05-01 08:30 41.44071 28.68876 5057 ft 249 kts 339°
2026-05-01 08:30 41.45639 28.67849 5609 ft 251 kts 339°
2026-05-01 08:30 41.47211 28.66827 6222 ft 252 kts 338°
2026-05-01 08:30 41.48786 28.65806 6854 ft 252 kts 338°
2026-05-01 08:31 41.50388 28.64777 7329 ft 259 kts 337°
2026-05-01 08:31 41.52047 28.63713 7707 ft 269 kts 336°
2026-05-01 08:31 41.53740 28.62624 8285 ft 271 kts 336°
2026-05-01 08:31 41.55457 28.61525 8749 ft 278 kts 335°
2026-05-01 08:32 41.57199 28.60383 9352 ft 277 kts 330°
2026-05-01 08:32 41.58668 28.58751 9850 ft 278 kts 311°
2026-05-01 08:32 41.59938 28.56758 10238 ft 285 kts 311°
2026-05-01 08:32 41.61289 28.54715 10380 ft 302 kts 311°
2026-05-01 08:33 41.62735 28.52575 10522 ft 319 kts 312°
2026-05-01 08:33 41.64272 28.50315 10670 ft 337 kts 312°
2026-05-01 08:33 41.65886 28.47946 10929 ft 352 kts 311°
2026-05-01 08:33 41.67467 28.45414 11294 ft 356 kts 301°
2026-05-01 08:34 41.68540 28.42395 11843 ft 361 kts 291°
2026-05-01 08:34 41.69469 28.39296 12771 ft 358 kts 291°
2026-05-01 08:34 41.70431 28.36209 13573 ft 360 kts 292°
2026-05-01 08:34 41.71405 28.33158 14310 ft 363 kts 292°
2026-05-01 08:35 41.72421 28.30016 15142 ft 363 kts 292°
2026-05-01 08:35 41.73432 28.26897 15704 ft 371 kts 292°
2026-05-01 08:35 41.74474 28.23696 16277 ft 377 kts 292°
2026-05-01 08:35 41.75511 28.20510 16975 ft 379 kts 292°
2026-05-01 08:36 41.76568 28.17259 17730 ft 381 kts 292°